Regional Weather Roundup
Issued by NWS

Home | Current Version | Previous Version | Text Only | Print | Product List | Glossary Off
Versions: 1 2 3 4 5 6 7 8 9 10 11 12 13 14 15 16 17 18 19 20 21 22 23 24 25 26 27 28 29 30 31 32 33 34 35 36 37 38 39 40 41 42 43 44 45 46 47 48 49 50

000
ASUS43 KDTX 250110
RWRMI
MICHIGAN HOURLY REGIONAL WEATHER ROUNDUP
NATIONAL WEATHER SERVICE DETROIT/PONTIAC MI
900 PM EDT WED AUG 24 2016

NOTE: "FAIR" INDICATES FEW OR NO CLOUDS BELOW 12,000 FEET WITH NO
SIGNIFICANT WEATHER AND/OR OBSTRUCTION TO VISIBILITY.

MIZ047>049-052>055-059>063-066>070-074>076-081>083-250200-
SOUTHEAST LOWER MICHIGAN

CITY           SKY/WX    TMP DP  RH WIND       PRES   REMARKS
ADRIAN         CLOUDY    75  73  93 SW6       29.99S
ALMA           MOCLDY    77  73  87 SW7G16    29.94S
ANN ARBOR      CLOUDY    76  74  93 S8        29.97S
BAD AXE        CLEAR     71  70  95 S5        29.95R
CARO           PTCLDY    73  71  93 CALM      29.94R
DETROIT CITY   LGT RAIN  76  75  97 SW3       29.97S
DETROIT        LGT RAIN  78  74  87 SW13      29.98S
FLINT          PTCLDY    79  71  76 SW8       29.96R
GROSSE ILE     CLOUDY    79  72  79 SW8       29.96F
HILLSDALE      CLOUDY    74  72  91 SW5       29.99S
HOWELL         CLOUDY    75  72  91 S5        29.98R

CITY           SKY/WX    TMP DP  RH WIND       PRES   REMARKS
JACKSON        MOCLDY    74  74 100 S5        29.98R
LAMBERTVILLE   CLOUDY    78  72  83 S5        29.98F
LANSING        CLOUDY    75  71  87 SW7       29.97R
LAPEER         MOCLDY    76  71  84 SW7       29.96S
MASON          CLOUDY    74  71  90 S5        29.97S
MONROE         PTCLDY    79  73  81 SW12G20   29.96S
MT. CLEMENS    CLOUDY    74  74 100 SW5       29.95F
PONTIAC        CLOUDY    75  72  90 SW5       29.98R
PORT HURON     LGT RAIN  73  72  94 S12       29.97S
TRI CITIES     PTCLDY    77  73  87 SW6       29.94R
MIDLAND        FAIR      75  70  84 W3        29.92R
TROY           DRIZZLE   76  73  91 SW6       29.99S
SAGINAW HB     MOCLDY    75  72  88 S5        29.93S
$$
MIZ043>046-050>051-056>058-064>065-071>073-077>080-250200-
SOUTHWEST LOWER MICHIGAN

CITY           SKY/WX    TMP DP  RH WIND       PRES   REMARKS
BATTLE CREEK   MOCLDY    73  73 100 W3        29.97S
BENTON HARBOR  CLEAR     75  70  84 W6        29.95R
BIG RAPIDS     PTCLDY    74  71  88 CALM      29.93F
COLDWATER      CLOUDY    74  73  95 CALM      29.97S
FREMONT        MOCLDY    72  71  97 CALM      29.94R
HOLLAND        CLEAR     73  70  90 SW5       29.95R
GRAND RAPIDS   CLOUDY    75  70  84 SW6       29.95S
IONIA          MOCLDY    75  68  78 SW6       29.95R
KALAMAZOO      MOCLDY    77  72  84 SW5       29.96S
LUDINGTON      MOCLDY    74  71  88 SW8       29.90S
MARSHALL       PTCLDY    75  73  94 CALM      29.96F
MOUNT PLEASANT CLOUDY    77  71  81 SW5       29.93R
MUSKEGON       CLEAR     75  72  90 S6        29.93S
SOUTH HAVEN    CLEAR     77  74  90 CALM      29.95R
$$
MIZ016>042-250200-
NORTHERN LOWER MICHIGAN

CITY           SKY/WX    TMP DP  RH WIND       PRES   REMARKS
ALPENA         CLEAR     76  68  76 S6        29.87S
BEAVER ISLAND  CLOUDY    70  69  97 SW7       29.86R
BELLAIRE       CLOUDY    76  68  75 SW3       29.89R
CADILLAC       CLOUDY    74  68  82 SW8       29.93S
CHARLEVOIX     CLEAR     74  69  87 SW8       29.90R
FRANKFORT      MOCLDY    74  70  88 SW8       29.90S
GAYLORD        LGT RAIN  73  68  84 SW6       29.91R
GRAYLING       CLOUDY    76  68  76 SW7       29.92R
HARBOR SPRINGS MOCLDY    73  69  87 W5        29.86S
HOUGHTON LAKE  MOCLDY    75  68  78 SW9       29.93S
MANISTEE       MOCLDY    75  70  84 W5        29.90R
OSCODA         MOCLDY    74  69  82 S8        29.90R
PELLSTON       PTCLDY    73  68  84 W8        29.86S
ROGERS CITY    CLOUDY    75  68  78 SW5       29.87R
TRAVERSE CITY  MOCLDY    78  69  73 W7        29.88R
$$
MIZ007>008-015-250200-
EASTERN UPPER MICHIGAN

CITY           SKY/WX    TMP DP  RH WIND       PRES   REMARKS
KINROSS        CLOUDY    70  68  93 W7        29.85R
MACKINAC ISLAN CLOUDY    71  71 100 SW13G18   29.85S
NEWBERRY       CLOUDY    69  68  97 SW8       29.84R
S. S. MARIE    CLOUDY    70  68  93 SW9       29.83R
$$
MIZ004>006-011>014-085-250200-
CENTRAL UPPER MICHIGAN

CITY           SKY/WX    TMP DP  RH WIND       PRES   REMARKS
MANISTIQUE     PTCLDY    67  65  91 CALM      29.84R
ESCANABA       CLEAR     71  69  93 SW3       29.84S
MENOMINEE      MOCLDY   N/A N/A N/A SW3       29.88R
SAWYER-GWINN   PTCLDY    70  66  88 E3        29.87R
$$
MIZ001>003-009>011-084-250200-
WESTERN UPPER MICHIGAN

CITY           SKY/WX    TMP DP  RH WIND       PRES   REMARKS
IRON MOUNTAIN  PTCLDY    71  64  78 W3        29.88R
HOUGHTON       CLOUDY    72  64  76 W9        29.83R
COPPER HARBOR    N/A     71  65  81 CALM      29.80R
IRONWOOD       PTCLDY    69  62  78 SW6       29.89R
$$

ABBREVIATIONS USED IN REMARKS
   TC - TEMPERATURE IN CELSIUS
  WCI - WIND CHILL INDEX
   HX - HEAT INDEX
  VSB - VISIBILITY





USA.gov is the U.S. government's official web portal to all federal, state and local government web resources and services.